Regional Weather Roundup
Issued by NWS Kansas City/Pleasant Hill, MO

Home | Current Version | Previous Version | Text Only | Print | Product List | Glossary On
Versions: 1 2 3 4 5 6 7 8 9 10 11 12 13 14 15 16 17 18 19 20 21 22 23 24 25 26 27 28 29 30 31 32 33 34 35 36 37 38 39 40 41 42 43 44 45 46 47 48 49 50
536
ASUS43 KEAX 270910
RWREAX

WEATHER ROUNDUP FOR EASTERN KANSAS AND NORTHWEST MISSOURI
NATIONAL WEATHER SERVICE KANSAS CITY/PLEASANT HILL MO
400 AM CDT TUE JUN 27 2017

KSZ040-057-103>105-MOZ028-029-037-043-271000-
...KANSAS CITY METROPOLITAN AREA...

CITY           SKY/WX    TMP DP  RH WIND       PRES   REMARKS
K.C. INTL      CLEAR     58  56  93 SE7       30.13F
K.C. DOWNTOWN  CLEAR     60  59  96 NE3       30.12F
LEES SUMMIT    CLEAR     58  58 100 E3        30.13F
OLATHE - IXD   CLEAR     58  56  93 E6        30.13F
OLATHE - OJC   CLEAR     57  56  96 SE3       30.13F
LAWRENCE       CLEAR     56  56 100 E3        30.13F FOG

$$

MOZ001>008-011>017-020>025-030>033-038>040-044>046-053-054-271000-
...NORTHERN AND CENTRAL MISSOURI...

CITY           SKY/WX    TMP DP  RH WIND       PRES   REMARKS
ST. JOSEPH     FOG       53  53 100 CALM      30.14S VSB 1/4
WARRENSBURG    FOG       54  52  94 CALM      30.13S VSB 1/4
WHITEMAN AFB   NOT AVBL
CLINTON        CLEAR     57  55  94 CALM      30.13F
SEDALIA          N/A     57  57 100 CALM      30.14F FOG
WARSAW         NOT AVBL
CHILLICOTHE      N/A     54  54 100 CALM      30.15F
KIRKSVILLE     CLEAR     54  50  86 NE7       30.15F

$$

MOZ041-047>049-056>058-063>065-088>090-097-271000-
...EASTERN AND SOUTHERN MISSOURI...

CITY           SKY/WX    TMP DP  RH WIND       PRES   REMARKS
ST. LOUIS INTL CLEAR     61  56  83 CALM      30.14S
SPIRIT OF STL  CLEAR     53  53 100 CALM      30.13S FOG
COLUMBIA       FOG       56  56 100 E3        30.15S VSB 1/2
JEFFERSON CITY FOG       58  57  97 CALM      30.15S VSB 1/4
ROLLA          CLEAR     53  53 100 CALM      30.14S
OSAGE BEACH    CLEAR     55  54  96 CALM      30.15S
SPRINGFIELD    PTCLDY    60  59  96 E6        30.11F
BRANSON        CLOUDY    59  59 100 SE3       30.13S
JOPLIN         CLOUDY    63  62  97 SE5       30.10R
WEST PLAINS    PTCLDY    60  59  96 E5        30.15S

$$

IAZ060-094-KSZ022-034>040-054-083-096-NEZ052-066-093-271000-
...KANSAS...SOUTHEAST NEBRASKA AND IOWA...

CITY           SKY/WX    TMP DP  RH WIND       PRES   REMARKS
TOPEKA         CLEAR     58  58 100 E3        30.12F
MANHATTAN      CLOUDY    61  60  97 E6        30.11F
EMPORIA        CLOUDY    61  60  97 E7        30.09F
CHANUTE        MOCLDY    63  61  93 NE3       30.09S
WICHITA        MOCLDY    66  65  96 E9        30.07R
OMAHA          CLEAR     54  49  83 CALM      30.13F
LINCOLN        CLEAR     54  51  90 CALM      30.12F
FALLS CITY     FOG       55  55 100 SE5       30.12F VSB 1/4
LAMONI         CLEAR     54  49  83 E3        30.15S
DES MOINES     CLEAR     56  46  69 CALM      30.15S

$$





USA.gov is the U.S. government's official web portal to all federal, state and local government web resources and services.